User: anonymous   Login
Location: Unspecified
(0.0000°N, 0.0000°E)
Time: 21:07:51
(UTC+00:00)
Language:

STARLINK-5869 - Orbit

View from above orbital plane
View from above orbital plane
View from above satellite
View from above satellite

Ground track
Ground track

The orbit is defined by the following mean orbital elements,

1 57061U          26145.05765645 +.00000000 +00000-0 +40837-4 0 00004
2 57061  43.0046  42.6243 0000882 247.6286 112.4473 15.27582441    03
Epoch (UTC): 25 May 2026 01:23:01
Eccentricity: 0.0000882
inclination: 43.0046°
perigee height: 482 km
apogee height: 484 km
right ascension of ascending node: 42.6243°
argument of perigee: 247.6286°
revolutions per day: 15.27582441
mean anomaly at epoch: 112.4473°

The dashed part of the orbit path shows where the satellite is in the earth's shadow,  

DLR